• In Portugal
  • List of Countries
  • For 7 days
  • Water Temperature
  • Satellite Maps
  • Weather Map
  • Weather Widgets
  • user-avatar
    Login

    Hourly Weather Salta

    Today, 21 July, Saturday

    Time Temperature Precipitation Wind Pressure Humidity
    00:00 +6°C° 0 mm 1 mps 653 mmHg 48%
    01:00 +6°C° 0 mm 1 mps 653 mmHg 48%
    02:00 +6°C° 0 mm 1 mps 653 mmHg 48%
    03:00 +6°C° 0 mm 1 mps 652 mmHg 46%
    04:00 +7°C° 0 mm 1 mps 652 mmHg 45%
    05:00 +7°C° 0 mm 1 mps 652 mmHg 43%
    06:00 +8°C° 0 mm 1 mps 652 mmHg 41%
    07:00 +9°C° 0 mm 1 mps 653 mmHg 39%
    08:00 +9°C° 0 mm 1 mps 653 mmHg 37%
    09:00 +12°C° 0 mm 1 mps 654 mmHg 32%
    10:00 +14°C° 0 mm 2 mps 654 mmHg 28%
    11:00 +17°C° 0 mm 2 mps 655 mmHg 23%
    12:00 +17°C° 0 mm 3 mps 654 mmHg 23%
    13:00 +18°C° 0 mm 3 mps 653 mmHg 22%
    14:00 +18°C° 0 mm 3 mps 652 mmHg 22%
    15:00 +18°C° 0 mm 3 mps 651 mmHg 25%
    16:00 +17°C° 0 mm 2 mps 651 mmHg 28%
    17:00 +16°C° 0 mm 2 mps 650 mmHg 30%
    18:00 +14°C° 0 mm 2 mps 650 mmHg 34%
    19:00 +13°C° 0 mm 2 mps 649 mmHg 38%
    20:00 +10°C° 0 mm 2 mps 649 mmHg 42%
    21:00 +10°C° 0 mm 2 mps 649 mmHg 44%
    22:00 +10°C° 0 mm 2 mps 649 mmHg 46%
    23:00 +9°C° 0 mm 2 mps 648 mmHg 48%

    Tomorrow, 22 July, Sunday

    Time Temperature Precipitation Wind Pressure Humidity
    00:00 +9°C° 0 mm 2 mps 648 mmHg 47%
    01:00 +10°C° 0 mm 2 mps 648 mmHg 47%
    02:00 +10°C° 0 mm 2 mps 648 mmHg 46%
    03:00 +10°C° 0 mm 2 mps 647 mmHg 45%
    04:00 +10°C° 0 mm 2 mps 647 mmHg 45%
    05:00 +10°C° 0 mm 2 mps 646 mmHg 44%
    06:00 +12°C° 0 mm 2 mps 647 mmHg 41%
    07:00 +13°C° 0 mm 2 mps 648 mmHg 38%
    08:00 +14°C° 0 mm 2 mps 648 mmHg 36%
    09:00 +17°C° 0 mm 2 mps 649 mmHg 29%
    10:00 +21°C° 0 mm 2 mps 651 mmHg 23%
    11:00 +26°C° 0 mm 2 mps 652 mmHg 16%
    12:00 +26°C° 0 mm 2 mps 652 mmHg 15%
    13:00 +27°C° 0 mm 2 mps 651 mmHg 15%
    14:00 +28°C° 0 mm 3 mps 651 mmHg 14%
    15:00 +27°C° 0 mm 3 mps 651 mmHg 18%
    16:00 +25°C° 0 mm 3 mps 651 mmHg 21%
    17:00 +22°C° 0 mm 3 mps 651 mmHg 25%
    18:00 +19°C° 0 mm 2 mps 651 mmHg 32%
    19:00 +17°C° 0 mm 2 mps 652 mmHg 39%
    20:00 +14°C° 0 mm 1 mps 652 mmHg 45%
    21:00 +13°C° 0 mm 1 mps 652 mmHg 47%
    22:00 +12°C° 0 mm 1 mps 653 mmHg 48%
    23:00 +11°C° 0 mm 1 mps 653 mmHg 49%

    Day after tomorrow, 23 July, Monday

    Time Temperature Precipitation Wind Pressure Humidity
    00:00 +11°C° 0 mm 1 mps 653 mmHg 49%
    01:00 +10°C° 0 mm 1 mps 653 mmHg 49%
    02:00 +10°C° 0 mm 1 mps 653 mmHg 50%
    03:00 +9°C° 0 mm 1 mps 653 mmHg 50%
    04:00 +9°C° 0 mm 1 mps 653 mmHg 51%
    05:00 +8°C° 0 mm 1 mps 654 mmHg 52%
    06:00 +8°C° 0 mm 1 mps 654 mmHg 51%
    07:00 +9°C° 0 mm 1 mps 655 mmHg 50%
    08:00 +9°C° 0 mm 1 mps 656 mmHg 49%
    09:00 +10°C° 0 mm 2 mps 656 mmHg 44%
    10:00 +12°C° 0 mm 2 mps 657 mmHg 39%
    11:00 +13°C° 0 mm 3 mps 657 mmHg 34%
    12:00 +14°C° 0 mm 3 mps 656 mmHg 33%
    13:00 +14°C° 0 mm 3 mps 656 mmHg 32%
    14:00 +16°C° 0 mm 3 mps 655 mmHg 30%
    15:00 +14°C° 0 mm 3 mps 654 mmHg 32%
    16:00 +13°C° 0 mm 3 mps 654 mmHg 34%
    17:00 +14°C° 0 mm 2 mps 653 mmHg 35%
    18:00 +12°C° 0 mm 2 mps 654 mmHg 39%
    19:00 +9°C° 0 mm 2 mps 654 mmHg 43%
    20:00 +8°C° 0 mm 1 mps 654 mmHg 46%
    21:00 +8°C° 0 mm 1 mps 654 mmHg 46%
    22:00 +8°C° 0 mm 1 mps 654 mmHg 46%
    23:00 +7°C° 0 mm 1 mps 654 mmHg 45%

    24 July, Tuesday

    Time Temperature Precipitation Wind Pressure Humidity
    00:00 +7°C° 0 mm 1 mps 654 mmHg 44%
    01:00 +6°C° 0 mm 1 mps 654 mmHg 44%
    02:00 +6°C° 0 mm 1 mps 653 mmHg 43%
    03:00 +6°C° 0 mm 1 mps 653 mmHg 43%
    04:00 +6°C° 0 mm 1 mps 653 mmHg 44%
    05:00 +6°C° 0 mm 1 mps 652 mmHg 44%
    06:00 +6°C° 0 mm 1 mps 653 mmHg 43%
    07:00 +6°C° 0 mm 2 mps 653 mmHg 43%
    08:00 +6°C° 0 mm 2 mps 654 mmHg 42%
    09:00 +9°C° 0 mm 2 mps 654 mmHg 37%
    10:00 +13°C° 0 mm 2 mps 654 mmHg 32%
    11:00 +16°C° 0 mm 2 mps 655 mmHg 26%
    12:00 +17°C° 0 mm 2 mps 654 mmHg 25%
    13:00 +18°C° 0 mm 3 mps 654 mmHg 23%
    14:00 +19°C° 0 mm 3 mps 653 mmHg 22%
    15:00 +18°C° 0 mm 3 mps 653 mmHg 24%
    16:00 +17°C° 0 mm 3 mps 653 mmHg 26%
    17:00 +16°C° 0 mm 3 mps 652 mmHg 28%
    18:00 +14°C° 0 mm 2 mps 653 mmHg 33%
    19:00 +12°C° 0 mm 2 mps 653 mmHg 39%
    20:00 +10°C° 0 mm 2 mps 653 mmHg 44%
    21:00 +9°C° 0 mm 2 mps 653 mmHg 47%
    22:00 +9°C° 0 mm 2 mps 653 mmHg 49%
    23:00 +8°C° 0 mm 2 mps 653 mmHg 52%

    25 July, Wednesday

    Time Temperature Precipitation Wind Pressure Humidity
    00:00 +8°C° 0 mm 2 mps 653 mmHg 53%
    01:00 +8°C° 0 mm 2 mps 653 mmHg 55%
    02:00 +7°C° 0 mm 2 mps 653 mmHg 57%
    03:00 +7°C° 0 mm 2 mps 653 mmHg 57%
    04:00 +7°C° 0 mm 2 mps 653 mmHg 58%
    05:00 +7°C° 0 mm 2 mps 652 mmHg 58%
    06:00 +7°C° 0 mm 2 mps 653 mmHg 57%
    07:00 +8°C° 0 mm 2 mps 654 mmHg 56%
    08:00 +9°C° 0 mm 1 mps 654 mmHg 55%
    09:00 +12°C° 0 mm 2 mps 655 mmHg 47%
    10:00 +15°C° 0 mm 2 mps 655 mmHg 39%
    11:00 +18°C° 0 mm 2 mps 656 mmHg 31%
    12:00 +18°C° 0 mm 2 mps 655 mmHg 29%
    13:00 +19°C° 0 mm 2 mps 655 mmHg 28%
    14:00 +20°C° 0 mm 2 mps 654 mmHg 27%
    15:00 +19°C° 0 mm 2 mps 653 mmHg 29%
    16:00 +18°C° 0 mm 2 mps 653 mmHg 32%
    17:00 +18°C° 0 mm 2 mps 653 mmHg 34%
    18:00 +16°C° 0 mm 1 mps 652 mmHg 41%
    19:00 +14°C° 0 mm 1 mps 652 mmHg 48%
    20:00 +12°C° 0 mm 1 mps 652 mmHg 55%
    21:00 +11°C° 0 mm 1 mps 652 mmHg 57%
    22:00 +11°C° 0 mm 1 mps 652 mmHg 59%
    23:00 +10°C° 0 mm 1 mps 652 mmHg 61%

    26 July, Thursday

    Time Temperature Precipitation Wind Pressure Humidity
    00:00 +10°C° 0 mm 1 mps 651 mmHg 60%
    01:00 +9°C° 0 mm 2 mps 651 mmHg 60%
    02:00 +9°C° 0 mm 2 mps 651 mmHg 59%
    03:00 +9°C° 0 mm 2 mps 650 mmHg 59%
    04:00 +9°C° 0 mm 2 mps 650 mmHg 59%
    05:00 +9°C° 0 mm 2 mps 650 mmHg 59%
    06:00 +10°C° 0 mm 2 mps 651 mmHg 58%
    07:00 +10°C° 0 mm 2 mps 651 mmHg 56%
    08:00 +12°C° 0 mm 2 mps 651 mmHg 55%
    09:00 +14°C° 0 mm 2 mps 652 mmHg 49%
    10:00 +16°C° 0 mm 2 mps 652 mmHg 42%
    11:00 +19°C° 0 mm 2 mps 652 mmHg 35%
    12:00 +20°C° 0 mm 2 mps 651 mmHg 33%
    13:00 +21°C° 0 mm 3 mps 651 mmHg 31%
    14:00 +22°C° 0 mm 3 mps 650 mmHg 29%
    15:00 +21°C° 0 mm 3 mps 650 mmHg 31%
    16:00 +20°C° 0 mm 3 mps 649 mmHg 33%
    17:00 +20°C° 0 mm 3 mps 649 mmHg 35%
    18:00 +17°C° 0 mm 3 mps 649 mmHg 43%
    19:00 +15°C° 0 mm 2 mps 649 mmHg 50%
    20:00 +13°C° 0 mm 2 mps 650 mmHg 58%
    21:00 +13°C° 0 mm 2 mps 650 mmHg 59%
    22:00 +13°C° 0 mm 2 mps 650 mmHg 60%
    23:00 +12°C° 0 mm 2 mps 650 mmHg 60%
    Show more